User: anonymous   Login
Location: Betpouey
(42.8833°N, 0.0333°E)
Time: 08:32:01
(UTC+00:00)
Language:

Meteor 2-13 Rocket - Orbit

View from above orbital plane
View from above orbital plane
View from above satellite
View from above satellite

Ground track
Ground track

The orbit data is extracted from the following two-line orbital elements,

1 16409U 85119B   21171.51508869  .00000010  00000-0 -39067-5 0  9990
2 16409  82.5377 273.6932 0013884 231.1331 128.8591 13.84817965793201
Epoch (UTC): 20 June 2021 12:21:43
Eccentricity: 0.0013884
inclination: 82.5377°
perigee height: 936 km
apogee height: 957 km
right ascension of ascending node: 273.6932°
argument of perigee: 231.1331°
revolutions per day: 13.84817965
mean anomaly at epoch: 128.8591°
orbit number at epoch: 79320

The dashed part of the orbit path shows where the satellite is in the earth's shadow,  

DLR